Concordia, KS

11:33 AM CDT on May 20, 2018 (GMT -0500)
Blosser Municipal

Weather History for KCNK - February, 2014

Change the Weather History Date:

Sunday, February 23, 2014

  Actual Average Record
Temperature  
Mean Temperature 27 °F 35 °F  
Max Temperature 31 °F 46 °F 80 °F (1918)
Min Temperature 22 °F 25 °F -7 °F (1889)
Degree Days  
Heating Degree Days 38 30  
Month to date heating degree days 885 758  
Since 1 July heating degree days 4290 4062  
Cooling Degree Days 0 0  
Month to date cooling degree days 0 0  
Year to date cooling degree days 0 0  
Moisture  
Dew Point 20 °F    
Average Humidity 78    
Maximum Humidity 100    
Minimum Humidity 55    
Precipitation  
Precipitation 0.03 in 0.03 in 0.56 in (2000)
Month to date precipitation 0.72 0.63  
Year to date precipitation 1.15 1.21  
Snow  
Snow 0.90 in 0.10 in 7.10 in (1960)
Month to date snowfall 8.1 4.3  
Year to date snowfall 13.7 10.0  
Since 1 July snowfall 20.0 16.5  
Snow Depth 1.00 in    
Sea Level Pressure  
Sea Level Pressure 30.27 in    
Wind  
Wind Speed 9 mph (NE)    
Max Wind Speed 20 mph    
Max Gust Speed 25 mph    
Visibility 6 miles    
Events Snow    
T = Trace of Precipitation, MM = Missing Value Source: NWS Daily Summary

Daily Weather History Graph

Daily Weather History Graph

Search for Another Location

Airport or City:

Astronomy

Feb. 23, 2014 Rise Set
Actual Time 7:12 AM CST 6:16 PM CST
Civil Twilight 6:44 AM CST 6:43 PM CST
Nautical Twilight 6:13 AM CST 7:14 PM CST
Astronomical Twilight 5:42 AM CST 7:45 PM CST
Moon 2:11 AM CST (2/23) 12:20 PM CST (2/23)
Length of Visible Light 11h 58m
Length of Day
11h 04m
Last Quarter, 38% of the Moon is Illuminated
Feb 23
Last Quarter
Mar 1
New
Mar 8
First Quarter
Mar 16
Full
Mar 23
Last Quarter

Hourly Weather History & Observations

Time (CST) Temp. Windchill Dew Point Humidity Pressure Visibility Wind Dir Wind Speed Gust Speed Precip Events Conditions
12:55 AM 30.0 °F 18.3 °F 21.0 °F 69% 30.15 in 10.0 mi NNE 17.3 mph 24.2 mph N/A   Mostly Cloudy
1:25 AM 28.9 °F 18.6 °F 23.0 °F 78% 30.15 in 10.0 mi NE 12.7 mph - N/A   Mostly Cloudy
1:39 AM 28.0 °F 17.5 °F 24.1 °F 85% 30.16 in 6.0 mi ENE 12.7 mph - 0.00 in Snow Light Snow
1:55 AM 27.0 °F 16.1 °F 25.0 °F 92% 30.18 in 3.0 mi ENE 12.7 mph - 0.00 in Snow Light Snow
2:16 AM 27.0 °F 18.0 °F 25.0 °F 92% 30.16 in 3.0 mi ENE 9.2 mph - 0.00 in Snow Light Snow
2:48 AM 26.1 °F 14.5 °F 24.1 °F 92% 30.17 in 6.0 mi NE 13.8 mph 19.6 mph 0.00 in Snow Light Snow
2:55 AM 26.1 °F 14.0 °F 23.0 °F 88% 30.20 in 7.0 mi NE 15.0 mph - 0.00 in Snow Light Snow
3:55 AM 26.1 °F 16.8 °F 24.1 °F 92% 30.20 in 6.0 mi NE 9.2 mph - 0.00 in Snow Light Snow
4:18 AM 26.1 °F 18.4 °F 24.1 °F 92% 30.18 in 4.0 mi NE 6.9 mph - 0.00 in Snow Light Snow
4:29 AM 26.1 °F 17.6 °F 24.1 °F 92% 30.18 in 2.0 mi NE 8.1 mph - 0.00 in Snow Light Snow
4:38 AM 26.1 °F 16.2 °F 24.1 °F 92% 30.17 in 1.5 mi ENE 10.4 mph - 0.01 in Snow Light Snow
4:42 AM 26.1 °F 15.6 °F 24.1 °F 92% 30.17 in 1.0 mi ENE 11.5 mph - 0.01 in Snow Light Snow
4:51 AM 24.8 °F 14.0 °F 24.8 °F 100% 30.18 in 0.8 mi NE 11.5 mph - 0.01 in Snow Light Snow
4:55 AM 25.0 °F 13.6 °F 24.1 °F 96% 30.22 in 1.0 mi NE 12.7 mph - 0.01 in Snow Light Snow
5:02 AM 25.0 °F 13.6 °F 24.1 °F 96% 30.18 in 1.2 mi NE 12.7 mph - 0.00 in Snow Light Snow
5:08 AM 25.0 °F 14.2 °F 24.1 °F 96% 30.18 in 1.8 mi NE 11.5 mph - 0.00 in Snow Light Snow
5:25 AM 25.0 °F 14.2 °F 23.0 °F 92% 30.19 in 2.0 mi NE 11.5 mph - 0.01 in Snow Light Snow
5:42 AM 25.0 °F 14.8 °F 23.0 °F 92% 30.20 in 1.8 mi NE 10.4 mph - 0.01 in Snow Light Snow
5:55 AM 24.1 °F 13.7 °F 23.0 °F 96% 30.25 in 2.0 mi NE 10.4 mph - 0.01 in Snow Light Snow
6:03 AM 24.1 °F 15.2 °F 23.0 °F 96% 30.21 in 3.0 mi NE 8.1 mph - 0.00 in Snow Light Snow
6:11 AM 24.1 °F 13.7 °F 23.0 °F 96% 30.21 in 3.0 mi NE 10.4 mph - 0.00 in Snow Light Snow
6:18 AM 24.1 °F 12.5 °F 23.0 °F 96% 30.21 in 3.0 mi NNE 12.7 mph - 0.00 in Snow Light Snow
6:29 AM 24.1 °F 11.5 °F 21.0 °F 88% 30.22 in 4.0 mi NNE 15.0 mph - 0.00 in Snow Light Snow
6:43 AM 24.1 °F 13.1 °F 21.0 °F 88% 30.23 in 4.0 mi NNE 11.5 mph - 0.00 in Snow Light Snow
6:55 AM 23.0 °F 11.7 °F 21.0 °F 92% 30.27 in 4.0 mi NNE 11.5 mph - 0.00 in Snow Light Snow
7:14 AM 23.0 °F 11.7 °F 21.0 °F 92% 30.25 in 2.0 mi North 11.5 mph - 0.00 in Snow Light Snow
7:21 AM 23.0 °F 11.1 °F 21.0 °F 92% 30.24 in 1.8 mi NE 12.7 mph - 0.00 in Snow Light Snow
7:27 AM 23.0 °F 10.6 °F 21.0 °F 92% 30.23 in 1.5 mi NE 13.8 mph - 0.00 in Snow Light Snow
7:34 AM 23.0 °F 10.6 °F 21.0 °F 92% 30.25 in 1.8 mi NNE 13.8 mph - 0.00 in Snow Light Snow
7:43 AM 23.0 °F 11.7 °F 21.0 °F 92% 30.26 in 3.0 mi NNE 11.5 mph - 0.00 in Snow Light Snow
7:55 AM 23.0 °F 11.7 °F 21.0 °F 92% 30.31 in 5.0 mi NNE 11.5 mph - 0.00 in Snow Light Snow
8:55 AM 23.0 °F 12.4 °F 19.0 °F 85% 30.35 in 10.0 mi NNE 10.4 mph - 0.00 in   Overcast
9:55 AM 21.9 °F 9.8 °F 19.0 °F 89% 30.38 in 7.0 mi North 12.7 mph - 0.01 in Snow Light Snow
10:55 AM 23.0 °F 11.1 °F 17.1 °F 78% 30.39 in 9.0 mi NNE 12.7 mph - 0.00 in Snow Light Snow
11:55 AM 24.1 °F 13.1 °F 17.1 °F 75% 30.39 in 10.0 mi NNE 11.5 mph - 0.00 in   Overcast
12:55 PM 25.0 °F 14.8 °F 14.0 °F 63% 30.38 in 10.0 mi NNE 10.4 mph - N/A   Overcast
1:55 PM 26.1 °F 16.2 °F 12.0 °F 55% 30.37 in 10.0 mi NNE 10.4 mph - N/A   Overcast
2:55 PM 27.0 °F 18.0 °F 12.0 °F 53% 30.37 in 10.0 mi NNE 9.2 mph - N/A   Overcast
3:55 PM 27.0 °F 17.3 °F 12.9 °F 56% 30.35 in 10.0 mi NE 10.4 mph - N/A   Overcast
4:55 PM 27.0 °F 17.3 °F 14.0 °F 58% 30.35 in 10.0 mi NE 10.4 mph - N/A   Overcast
5:55 PM 26.1 °F 17.6 °F 12.9 °F 58% 30.36 in 10.0 mi NE 8.1 mph - N/A   Overcast
6:55 PM 26.1 °F 20.5 °F 12.9 °F 58% 30.36 in 10.0 mi ENE 4.6 mph - N/A   Overcast
7:55 PM 26.1 °F 21.9 °F 15.1 °F 63% 30.38 in 10.0 mi NE 3.5 mph - N/A   Overcast
8:55 PM 26.1 °F 20.5 °F 15.1 °F 63% 30.37 in 10.0 mi East 4.6 mph - N/A   Overcast
9:55 PM 26.1 °F 21.9 °F 16.0 °F 66% 30.39 in 10.0 mi ENE 3.5 mph - N/A   Overcast
10:55 PM 26.1 °F 21.9 °F 16.0 °F 66% 30.39 in 10.0 mi NE 3.5 mph - N/A   Overcast
11:55 PM 26.1 °F - 16.0 °F 66% 30.38 in 10.0 mi Calm Calm - N/A   Overcast